User: anonymous   Login
Location: Unspecified
(0.0000°N, 0.0000°E)
Time: 11:40:49
(UTC+00:00)
Language:

COSMOS 2468 - Orbit

View from above orbital plane
View from above orbital plane
View from above satellite
View from above satellite

Ground track
Ground track

The orbit data is extracted from the following two-line orbital elements,

1 37154U 10043C   15145.17532675  .00000006  00000-0 -26862-4 0  9995
2 37154 082.4628 071.9988 0014346 133.2054 227.0227 12.42899108213631
Epoch (UTC): 25 May 2015 04:12:28
Eccentricity: 0.0014346
inclination: 82.4628°
perigee height: 1483 km
apogee height: 1505 km
right ascension of ascending node: 71.9988°
argument of perigee: 133.2054°
revolutions per day: 12.42899108
mean anomaly at epoch: 227.0227°
orbit number at epoch: 21363

The dashed part of the orbit path shows where the satellite is in the earth's shadow,  

DLR